RH
92 90 90 93 94 91 87 83 78 76 75 75 74 75 73 72 71 70 70 70 69 68 69 71 74 75 84 82 82 80 86 88
95 90 91 91 96 93 91 90 84 82 73 73 76 72 71 69 72 71 66 66 66 65 70 70 74 78 78 77 80 82 92 88
95 93 87 86 88 84 84 81 80 77 75 68 73 74 72 71 74 72 64 65 68 68 65 68 67 77 75 74 77 85 86 87
96 92 89 90 79 88 86 78 84 82 82 80 80 78 70 65 65 67 65 63 63 62 60 60 62 69 76 74 84 85 86 81
91 88 89 93 92 94 90 95 93 83 79 80 80 72 70 72 71 71 73 67 64 64 61 59 57 66 77 82 82 84 89 84
90 85 94 92 90 91 94 91 89 88 86 83 81 78 77 74 75 80 78 82 74 75 71 60 59 59 69 78 80 82 86 80
90 89 92 92 91 94 93 91 92 89 88 84 80 79 82 77 81 76 75 76 80 74 70 61 61 61 61 71 78 80 82 83
93 94 92 85 92 91 93 77 90 88 88 86 82 83 84 82 78 75 74 78 78 76 71 66 65 66 62 67 76 76 66 62
89 85 76 86 85 88 88 80 84 89 88 85 79 82 84 83 77 80 81 78 71 72 69 66 65 65 69 58 56 54 51 53
80 75 87 91 88 91 89 90 89 90 89 89 81 78 80 82 80 80 77 77 76 70 78 69 74 76 69 68 62 51 45 42
91 91 92 90 91 93 93 92 91 94 90 84 80 78 78 78 79 79 77 78 81 72 73 78 77 68 56 60 57 55 55 42
92 90 90 91 93 95 96 96 96 91 87 80 76 78 75 77 78 78 76 77 78 78 73 74 80 75 44 56 61 62 56 56
86 85 88 84 89 96 96 97 96 92 79 72 72 73 74 75 79 78 78 78 81 77 80 73 74 79 71 70 66 65 59 63
83 77 82 80 83 94 95 96 96 92 79 72 72 72 74 70 76 78 76 78 79 79 77 76 78 83 71 77 75 71 65 63
74 75 76 80 86 93 97 94 91 84 77 71 73 72 75 76 74 78 80 82 84 84 80 74 74 78 81 67 62 65 74 71
74 72 77 79 89 91 89 91 91 88 80 73 75 72 73 75 74 76 80 84 84 82 77 82 78 76 76 71 77 72 68 55
79 76 77 78 86 86 89 93 94 91 80 69 73 78 72 70 74 76 78 82 84 77 80 81 83 82 81 79 78 81 80 74
84 78 72 81 86 89 88 93 94 86 78 73 75 79 80 74 70 75 78 78 81 81 81 78 82 82 83 81 80 77 81 78
76 75 72 78 83 88 88 88 87 79 71 70 76 80 78 78 75 76 75 76 79 82 79 78 79 80 79 81 80 79 77 77
70 73 71 76 77 80 85 87 84 81 74 70 73 75 73 74 73 73 70 70 72 80 81 82 82 83 78 77 81 80 76 76
Wind_Speed
9 10 13 17 14 14 14 13 12 13 14 16 16 16 16 17 17 20 18 17 17 16 15 15 17 18 17 17 15 17 8 6
9 8 8 7 7 13 12 11 10 12 14 14 14 16 16 16 18 19 18 19 17 16 15 15 17 18 17 16 15 14 7 6
7 7 7 6 6 7 10 13 11 12 12 12 9 5 6 10 19 18 20 20 18 16 15 15 15 15 16 16 13 4 6 5
6 6 6 6 5 6 5 5 4 6 6 5 4 5 8 11 16 19 20 17 18 18 19 16 11 5 5 10 4 5 5 4
6 7 6 6 5 4 3 2 2 4 6 4 5 6 6 6 6 6 6 12 6 9 8 6 8 5 4 4 5 5 4 4
6 5 6 6 4 3 3 3 3 4 5 6 4 4 6 6 5 5 5 4 6 6 5 6 9 8 6 6 6 5 4 5
6 6 5 5 5 3 4 4 4 4 5 5 4 5 6 6 5 5 5 5 5 5 5 6 7 6 6 6 6 7 8 5
5 6 5 5 4 4 4 5 4 5 4 5 7 6 5 6 5 6 6 4 4 5 5 5 5 5 8 8 7 7 8 8
7 6 5 6 6 3 4 5 5 4 5 7 8 6 6 6 6 6 4 4 6 5 6 6 6 6 9 9 8 8 9 9
7 6 7 6 6 3 3 4 5 4 5 5 7 7 7 7 5 4 4 5 5 6 5 5 5 6 7 7 6 7 8 8
8 7 7 6 7 4 3 7 6 5 5 5 6 7 7 6 5 4 5 5 5 4 7 5 5 5 8 7 6 7 6 7
7 6 7 7 5 5 4 4 4 4 4 5 7 5 6 6 5 5 5 5 5 5 6 6 4 4 9 8 6 5 6 7
7 9 7 8 5 4 3 2 2 3 5 6 6 6 5 6 5 5 5 6 5 5 3 6 7 4 3 5 6 6 7 5
8 9 10 8 7 3 4 3 2 3 3 5 5 7 5 6 6 5 5 5 6 5 4 2 3 4 3 2 2 2 4 5
11 9 11 8 7 6 4 4 2 3 3 3 2 6 5 5 6 5 5 5 4 4 4 4 3 4 6 4 2 3 0 1
10 9 8 7 8 7 8 4 4 3 3 3 3 5 5 5 6 6 6 4 5 3 3 3 3 2 2 4 5 2 3 2
9 8 7 7 8 8 7 5 2 3 3 6 3 3 5 6 6 5 6 4 3 4 4 5 3 3 2 1 3 4 4 3
8 10 10 8 9 8 10 10 7 5 4 5 4 2 3 4 5 5 4 5 4 4 4 5 4 4 3 3 2 2 1 3
11 12 13 10 10 10 10 10 10 12 9 6 6 3 3 5 5 5 3 4 4 5 5 5 3 3 3 2 2 2 2 2
15 14 13 12 12 12 10 10 8 7 8 6 5 5 5 6 6 6 6 5 4 5 3 3 4 3 4 3 2 2 1 2
Wind_Direction
85 85 87 80 74 82 81 80 82 79 84 87 82 78 73 71 68 64 59 55 53 53 54 52 49 60 82 70 64 59 47 35
89 87 78 76 87 84 80 83 79 74 76 73 68 67 69 66 62 59 54 50 49 48 48 49 55 71 78 76 68 56 39 32
95 93 84 85 66 83 78 83 82 75 69 71 61 60 51 50 62 60 56 53 52 54 48 51 54 69 80 77 66 44 49 32
82 78 74 63 64 53 50 76 66 80 74 61 48 63 75 67 61 57 55 53 51 50 49 48 46 48 63 74 67 59 49 39
80 88 79 69 67 60 49 42 65 71 73 60 52 64 52 51 49 41 35 41 36 39 35 34 41 44 56 52 58 59 53 42
101 100 104 93 86 90 80 74 46 75 62 66 67 66 59 61 54 41 42 16 39 36 34 31 38 45 59 65 56 54 43 49
110 111 112 109 100 87 72 70 58 63 66 59 73 75 71 63 50 51 42 30 36 41 39 34 33 32 45 70 67 56 49 49
122 124 122 121 108 108 93 79 70 76 72 71 62 64 68 71 59 47 39 29 34 49 48 37 33 25 57 66 71 57 55 54
143 132 111 113 110 96 101 92 66 55 76 62 71 73 77 71 60 46 28 23 41 41 37 43 34 42 61 67 68 61 61 54
139 141 137 124 109 95 90 98 93 63 58 65 66 77 78 70 68 54 36 44 43 42 26 36 44 58 68 55 47 51 55 53
146 141 151 142 120 106 79 85 80 76 63 67 62 68 73 81 70 56 49 56 48 40 40 45 45 62 76 67 55 59 50 55
144 157 156 147 110 95 61 69 77 84 87 79 82 73 77 84 68 57 51 58 48 46 57 45 53 53 82 64 47 42 52 51
164 158 157 142 131 120 96 93 87 69 81 84 86 86 86 92 82 68 48 58 59 45 63 56 33 5 84 52 45 39 48 36
168 167 159 160 151 141 133 154 78 97 89 81 96 100 101 93 94 81 63 60 50 54 55 89 74 13 123 97 146 341 41 30
176 175 175 165 143 116 84 77 68 74 65 84 87 104 99 105 96 93 85 79 61 57 62 76 121 28 48 138 119 198 333 2
178 182 177 170 155 136 159 155 157 187 151 133 139 116 122 113 100 99 94 91 86 65 61 78 97 70 23 44 56 125 139 351
184 178 181 174 168 169 160 152 153 140 126 135 145 144 143 113 114 111 103 99 104 104 76 64 55 86 64 67 58 59 57 102
182 181 196 187 178 177 176 166 159 151 159 151 176 166 122 136 135 118 114 116 122 116 93 89 92 83 66 58 90 103 55 88
187 189 201 196 185 177 181 179 174 177 175 164 162 154 185 180 144 142 137 131 125 133 119 116 117 104 111 79 74 79 94 83
190 192 200 194 188 189 188 176 185 185 177 164 175 182 175 170 163 154 146 140 133 138 119 118 115 109 118 104 107 105 92 120